Wind_Speed
3 3 5 8 7 6 3 5 4 4 8 11 14 12 11 6 5 3 4 3 6 8 3 5 13 13 15 9 13 21 19 13 11 11 9 10 11 13 23 26 28 32 32 33
5 7 10 7 7 7 9 5 6 6 5 1 7 10 6 7 6 8 9 9 10 4 7 8 24 27 24 21 20 19 17 15 13 10 9 7 10 11 12 13 21 26 32 36
6 11 7 9 10 10 11 8 5 5 3 5 4 5 2 3 3 4 6 3 5 11 11 7 10 18 20 19 17 16 14 12 10 8 5 7 10 14 16 21 20 21 25 28
6 12 8 11 13 9 1 3 3 6 5 1 4 2 4 4 5 4 3 9 11 9 6 6 8 14 20 17 16 15 13 10 8 7 6 6 6 8 13 17 22 26 30 32
6 3 6 7 5 6 6 8 6 4 4 3 3 4 7 3 4 5 7 7 9 9 9 8 8 17 15 13 15 11 8 5 2 1 2 5 9 12 16 20 23 27 29 32
7 5 4 4 9 5 8 6 8 5 3 2 5 5 5 4 6 4 3 7 8 7 8 7 10 10 10 12 10 7 3 1 2 4 5 9 12 14 18 21 23 24 27 32
4 4 4 2 1 7 6 6 3 4 4 5 2 3 8 2 8 9 9 8 7 7 6 5 5 3 2 3 4 3 5 7 11 13 15 18 17 15 18 21 21 21 25 28
3 4 1 1 3 2 4 6 5 5 2 3 6 3 5 8 7 8 8 8 7 7 6 7 8 10 10 11 11 9 12 13 14 17 19 19 18 18 18 18 20 22 22 24
5 3 2 5 3 3 2 4 6 5 1 2 4 1 7 3 8 6 6 6 7 8 8 9 7 9 8 9 11 12 13 15 18 21 22 21 20 19 22 21 21 22 24 25
4 1 3 4 5 4 4 3 3 3 2 3 4 4 5 4 6 6 6 7 8 9 8 5 4 10 17 19 23 23 23 25 25 26 23 23 23 24 25 26 24 24 22 23
3 4 4 4 1 4 3 1 4 4 5 4 1 4 2 6 7 8 9 9 4 7 8 8 7 17 19 20 20 21 23 25 28 30 33 34 34 34 30 28 24 24 26 24
3 4 3 6 4 4 4 7 6 5 6 5 4 6 1 5 4 8 7 9 7 7 7 8 7 14 17 16 19 21 24 26 25 26 28 31 32 32 31 31 36 33 32 28
4 1 2 7 6 5 2 2 3 2 3 8 7 5 5 8 7 9 7 5 5 6 8 7 6 6 7 9 12 15 18 21 23 25 27 29 30 30 29 30 32 36 38 34
5 3 5 6 4 4 3 2 5 2 1 4 5 4 11 9 6 5 3 5 6 6 5 3 3 2 5 9 13 18 22 26 29 32 31 31 30 29 29 30 29 32 34 32
4 2 2 4 5 3 5 7 5 9 10 4 4 6 10 7 6 3 4 4 6 6 6 5 6 5 9 13 17 21 27 31 28 27 28 27 29 30 28 29 30 31 32 32
5 2 1 4 5 5 8 9 14 15 14 12 11 9 4 3 4 6 5 4 5 5 6 6 5 5 8 14 22 29 30 26 27 27 25 29 30 30 29 26 28 30 30 25
1 3 3 4 4 5 5 15 16 15 16 13 12 3 2 1 5 4 4 4 5 6 5 5 5 7 14 21 27 26 26 26 25 26 27 29 29 28 27 29 29 29 27 26
4 2 3 2 2 3 6 9 7 8 9 9 9 6 4 1 3 6 3 3 4 6 6 6 6 15 22 25 23 25 25 25 25 27 28 27 26 26 26 27 27 27 29 27
7 4 2 2 3 6 8 4 3 4 4 4 6 4 2 4 0 2 9 4 4 4 5 8 15 20 24 23 25 26 27 27 26 26 25 25 25 26 27 27 26 26 25 19
6 6 4 2 2 5 4 4 2 7 3 0 6 4 5 4 4 3 3 3 5 5 9 16 18 22 23 25 25 25 25 25 25 25 27 28 28 29 28 29 27 26 24 24
4 3 7 5 2 6 5 5 3 4 2 4 4 4 3 2 3 4 6 7 6 12 18 22 22 23 23 25 25 23 25 24 26 28 28 30 31 31 31 31 29 25 23 23
5 5 3 3 4 6 3 6 2 2 3 6 4 4 4 3 6 6 7 9 11 14 21 24 23 23 24 23 23 24 24 27 28 28 29 31 33 32 31 32 29 21 19 19
4 5 4 6 5 3 1 4 4 5 4 1 5 4 6 6 6 6 8 10 12 17 20 23 23 25 24 23 22 24 26 27 27 28 30 32 33 30 22 26 25 17 16 15
1 2 3 1 2 3 2 2 4 4 1 5 6 8 8 6 5 7 7 12 13 17 20 23 23 22 24 25 24 23 25 26 25 26 28 30 29 22 23 23 16 14 12 12
4 5 4 3 2 5 6 2 4 4 6 9 10 9 8 6 5 5 10 12 12 18 21 22 20 21 24 26 26 25 25 24 25 27 28 26 16 18 19 18 8 11 14 15
4 5 3 5 5 3 7 9 7 7 6 7 10 7 6 7 5 5 10 13 16 17 21 22 23 23 24 26 26 26 24 24 24 26 25 23 15 15 15 14 10 8 13 12
Wind_Direction
267 104 229 250 219 228 240 253 248 282 268 228 228 218 235 188 194 236 268 245 225 220 313 43 82 104 110 97 85 87 102 99 93 81 53 26 358 292 276 278 275 272 267 254
343 248 228 252 287 282 280 265 273 264 268 158 174 205 209 174 197 187 210 227 229 88 83 56 94 98 97 99 95 86 78 76 73 60 53 29 358 342 335 314 284 283 279 276
195 250 250 242 260 266 274 193 223 207 345 6 70 5 170 281 347 295 205 134 90 138 130 120 91 101 104 101 96 92 83 74 65 63 31 345 329 324 327 326 321 312 305 294
237 266 261 257 239 208 193 255 68 53 79 213 54 260 304 268 294 10 84 111 117 118 104 100 101 102 105 102 109 99 83 64 52 28 18 6 341 317 313 315 316 318 320 306
268 287 339 326 251 180 213 120 113 120 114 97 333 98 265 316 28 91 108 120 131 130 127 121 124 117 114 113 122 116 105 96 81 303 315 311 300 299 306 313 317 319 315 312
245 255 255 225 314 259 152 74 33 45 82 59 219 135 273 239 167 171 144 136 131 122 123 128 130 120 127 137 140 141 148 186 296 295 268 281 293 305 312 314 314 317 318 315
329 277 269 269 342 17 73 71 7 355 16 229 101 69 235 301 160 150 152 141 137 133 127 126 125 129 150 205 237 236 261 283 288 281 278 275 274 274 284 294 301 305 315 317
202 317 12 221 117 154 48 138 148 178 179 274 317 237 284 112 108 120 135 151 155 161 181 191 199 201 216 220 226 237 234 244 250 259 262 257 258 264 274 278 285 293 303 313
174 231 26 48 42 102 321 63 172 110 82 82 247 270 38 93 118 129 162 177 200 211 215 219 230 229 244 225 234 246 254 270 285 288 282 261 260 267 277 277 278 283 294 306
211 266 9 14 45 31 100 167 63 34 140 237 272 241 172 164 170 188 205 217 238 238 243 280 341 28 44 54 55 44 31 22 13 9 2 353 344 332 320 297 280 280 290 302
125 110 279 46 93 189 1 19 114 114 131 187 217 271 179 176 198 206 230 229 271 35 76 72 61 63 57 46 35 21 7 355 345 337 331 327 323 321 321 324 325 316 307 304
320 131 169 240 247 229 221 209 166 138 210 216 164 255 186 133 273 252 323 95 80 74 75 66 57 51 41 27 5 355 345 337 335 328 324 319 314 309 306 304 303 309 317 318
177 29 53 342 351 9 33 270 106 124 103 210 208 254 299 314 335 66 82 57 65 77 77 69 51 46 37 4 346 334 328 324 322 318 312 307 301 297 298 297 296 298 299 306
72 137 159 185 185 175 284 299 347 92 126 244 215 256 274 260 120 103 53 67 72 73 66 78 49 2 330 329 329 330 323 317 311 309 303 301 297 294 294 294 294 295 295 294
84 175 201 249 259 213 226 256 272 278 240 225 249 229 262 121 134 117 96 65 50 25 15 5 351 334 339 346 333 319 310 308 310 308 303 297 296 292 290 291 291 290 287 283
352 218 91 280 287 285 286 236 230 231 234 251 267 285 68 105 98 89 63 42 19 347 340 331 327 349 335 317 315 314 313 312 312 305 303 303 299 295 289 289 294 291 288 284
52 132 92 255 325 296 288 249 245 233 227 227 235 132 200 88 114 105 60 19 344 334 314 312 338 320 311 316 316 310 309 309 308 305 305 302 300 299 295 293 292 290 286 287
156 138 111 262 348 222 239 296 267 131 63 100 119 142 121 309 132 170 174 33 16 322 335 333 309 313 316 316 312 309 310 310 310 303 296 295 297 298 298 295 293 292 283 281
184 154 141 230 204 297 306 10 45 47 59 83 109 79 55 336 3 216 26 58 341 323 323 305 310 315 315 314 313 314 313 311 301 293 295 297 297 294 292 287 285 290 292 292
150 142 154 179 212 226 254 118 138 122 178 266 107 79 46 32 8 250 308 313 355 334 313 316 320 321 318 314 316 311 306 300 297 302 302 301 297 287 282 279 279 280 285 283
135 130 205 203 258 280 285 124 29 122 172 118 116 124 129 113 205 294 346 4 346 329 330 330 326 319 316 316 313 306 301 298 302 302 299 293 290 285 283 281 272 269 274 282
156 162 174 167 228 245 309 94 63 277 87 137 109 90 75 32 20 6 2 339 341 334 334 330 321 318 320 317 315 303 300 304 304 300 297 294 292 288 285 277 271 257 261 274
204 174 180 186 214 218 20 124 103 54 114 71 93 64 77 61 36 2 343 341 337 331 327 325 320 318 321 320 314 301 303 309 308 307 302 298 298 300 307 299 272 240 251 259
199 234 202 93 46 96 111 5 109 67 4 119 93 93 79 81 32 359 346 343 336 334 327 323 323 323 320 320 315 309 310 312 309 303 301 302 308 313 316 315 274 237 247 256
234 170 203 233 128 92 70 64 218 170 137 89 82 85 91 82 34 354 349 345 337 327 328 329 325 322 319 322 320 319 316 317 312 309 304 305 307 317 322 327 300 258 254 258
191 186 171 229 184 171 190 205 221 130 105 104 104 85 84 78 39 350 358 344 331 332 339 339 335 328 327 325 322 321 323 322 314 307 306 309 306 327 329 337 337 299 274 275
Height
741 757 764 754 750 745 746 749 749 742 729 738 740 741 736 731 729 729 730 731 733 733 727 728 730 734 738 741 744 747 752 754 755 755 756 757 758 761 762 763 764 765 765 767
756 761 742 736 739 744 746 752 752 739 727 728 737 743 732 731 731 731 731 732 731 732 735 734 733 735 737 742 744 746 749 751 753 754 757 758 759 760 761 761 762 762 763 763
759 742 733 738 742 747 743 749 743 743 730 730 735 751 736 725 722 721 725 729 731 735 737 736 733 737 739 741 743 746 748 750 751 753 755 756 757 756 756 756 758 759 758 757
747 729 734 736 739 737 743 726 730 737 750 765 743 784 756 739 737 735 731 735 737 738 737 736 735 738 739 742 745 747 750 751 752 753 753 755 755 755 754 753 751 751 750 748
746 734 735 737 726 720 736 724 730 737 755 758 759 779 764 743 746 743 742 740 737 736 738 739 738 737 738 741 744 747 749 751 751 752 752 751 752 752 750 747 744 743 743 742
738 723 723 723 717 714 718 732 746 751 764 783 760 771 770 753 745 745 741 741 738 738 737 736 736 738 740 741 743 744 745 746 747 747 748 749 748 746 744 742 739 737 736 734
735 731 720 715 725 723 729 753 784 783 789 786 751 764 757 732 732 737 743 742 739 738 737 734 733 733 735 736 738 739 740 741 742 743 743 742 741 740 739 738 735 733 731 729
754 755 725 717 726 734 735 747 781 786 793 782 758 765 751 732 733 734 734 736 736 734 732 732 731 732 734 735 735 736 737 737 739 738 736 734 733 732 731 730 729 727 724 721
747 743 720 719 717 724 739 757 748 769 770 786 772 748 743 737 737 738 738 736 736 734 733 731 730 731 732 733 734 734 734 734 733 732 729 728 728 726 725 724 722 720 718 714
734 749 729 726 721 727 733 735 767 774 785 790 770 755 755 750 744 739 737 737 735 733 731 732 734 735 736 737 737 737 737 736 734 730 729 729 727 724 723 720 715 713 711 708
729 744 748 735 739 746 746 750 752 764 778 802 801 770 737 744 744 742 737 731 732 738 738 738 739 739 739 738 738 737 735 735 734 733 731 727 725 722 719 716 712 709 706 701
737 751 758 751 737 734 739 747 752 780 780 779 781 773 736 736 736 739 739 740 739 739 740 741 740 739 739 739 738 737 736 734 733 731 727 724 721 718 714 710 707 704 700 694
736 757 769 761 750 745 746 739 744 756 768 768 774 773 730 732 733 742 745 743 740 741 741 742 742 741 740 739 737 735 733 730 728 725 722 719 715 711 708 704 700 696 693 689
733 752 758 769 755 757 757 751 748 759 775 766 762 753 739 734 741 746 745 744 746 745 744 741 740 739 738 736 734 732 729 727 723 719 714 710 707 704 700 696 692 688 685 682
746 755 750 748 746 746 749 746 745 752 762 767 753 752 739 742 746 746 747 747 744 743 741 739 738 736 734 732 731 728 725 720 716 711 707 702 699 696 693 690 685 680 676 673
754 758 751 754 746 747 748 744 744 739 745 745 740 742 742 742 746 747 748 746 744 742 740 739 738 735 733 731 727 722 717 713 710 706 702 697 693 689 685 682 678 674 668 664
757 758 760 766 751 747 758 737 734 731 729 727 739 747 746 748 749 749 748 745 744 744 742 739 735 733 731 727 722 717 713 710 706 700 694 691 687 683 679 675 670 666 662 658
757 757 760 762 758 763 738 723 717 724 730 728 739 744 744 743 743 747 744 744 745 743 738 735 734 731 727 722 717 714 710 704 698 693 690 686 681 677 672 668 663 659 656 653
747 753 763 763 770 750 729 728 727 731 743 737 740 743 743 742 740 742 742 743 741 738 736 735 733 729 722 717 713 708 701 697 694 689 684 680 675 671 665 660 656 654 651 646
743 749 763 765 766 762 734 726 723 724 744 735 738 742 742 744 753 752 744 741 739 738 736 733 728 723 717 712 707 703 697 693 688 683 678 673 668 663 656 651 647 646 644 641
752 757 757 759 762 756 732 727 724 744 746 737 737 740 743 746 747 743 741 739 738 736 732 727 722 718 714 708 703 697 693 688 683 678 672 665 659 654 648 642 638 636 636 634
751 754 755 756 757 754 730 729 740 737 734 737 737 739 740 742 743 744 743 740 736 733 727 724 720 714 709 704 699 694 688 683 678 671 665 658 651 644 637 632 627 626 628 627
741 745 751 751 754 736 731 732 735 733 736 737 738 738 741 745 748 748 744 741 737 734 729 724 718 709 705 700 696 689 683 678 671 666 658 650 642 635 630 624 617 617 620 621
734 735 743 738 734 734 735 734 733 735 737 738 739 742 743 748 749 748 745 741 737 732 727 721 713 706 700 695 691 686 679 673 667 660 652 643 637 630 625 618 612 611 613 615
737 732 733 736 735 734 734 736 735 735 739 739 741 744 747 748 748 748 745 741 736 731 724 718 712 705 698 692 685 680 674 668 662 655 646 638 632 627 622 616 611 610 609 611
728 731 739 741 727 730 731 731 730 735 738 740 743 747 748 747 748 747 744 740 735 728 721 716 710 704 696 688 681 675 670 665 660 650 642 635 629 624 620 616 612 610 608 608